Starlink 35269

operational
NORAD ID: 65593 Int'l Des: 2025-207 Owner: SPXS Country: US Constellation: starlink
NOTLE

About Starlink 35269

Description loading...

Live Position

Loading 3D Globe...

Upcoming Passes

Altitude History

Altitude vs Time

uPlot chart will show altitude changes over time

Two-Line Element Set

1 65593U 25207B 25354.25003472 -.02641584 00000-0 -10110+0 0 9990
2 65593 97.6048 60.2928 0001926 50.0364 289.6656 15.30250406 5897
Epoch: Dec 20, 2025 • Age: 10 hours

Current Status

Altitude 494.1 km
Velocity 7.63 km/s
Sub-Earth Point 78.37°N, 53.04°E
Launch Date Sep 13, 2025
Age 0.2 years
Type internet

Technical Details

Classification Payload
Mass 575.00 kg
Dry Mass 530.00 kg
Total Mass 575.00 kg
Length 0.30 m
Diameter 4.10 m
Span 29.00 m
Shape Box + pan
Manufacturer SPXS
Bus Type Starlink V2MO
Phase Status In Orbit
Owner/State SPXS/US

Large Constellations

Loading constellations...